Weather Roundup
Issued by NWS

Home | Current Version | Previous Version | Text Only | Print | Product List | Glossary On
Versions: 1 2 3 4 5 6 7 8 9 10 11 12 13 14 15 16 17 18 19 20 21 22 23 24 25 26 27 28 29 30 31 32 33 34 35 36 37 38 39 40 41 42 43 44 45 46 47 48 49 50
576
NZUS93 KARX 261059
HRRWXR

CURRENT HOURLY OBSERVATIONS ACROSS
MUCH OF THE UPPER MISSISSIPPI VALLEY
NATIONAL WEATHER SERVICE LA CROSSE WI
600 AM CDT TUE JUL 26 2016


...SOUTHEAST MINNESOTA...


CITY           SKY/WX    TMP DP  RH WIND       PRES   REMARKS
ROCHESTER      CLEAR     63  62  97 S5        30.09S
ROCHESTER/MAYO FAIR      67  64  90 CALM      30.08F
WINONA         PTCLDY    63  61  94 CALM      30.07S
AUSTIN         CLEAR     63  61  94 CALM      30.09S
ALBERT LEA     CLEAR     64  64 100 CALM      30.08S
DODGE CENTER   CLEAR     63  61  94 SW5       30.08F
PRESTON        CLEAR     65  61  87 CALM      30.09F
OWATONNA       CLEAR     64  61  88 CALM      30.07F
FARIBAULT      CLEAR     64  63  94 SE3       30.06F
$$

...ELSEWHERE IN MINNESOTA...


CITY           SKY/WX    TMP DP  RH WIND       PRES   REMARKS
MINNEAPOLIS    PTCLDY    72  64  76 SW6       30.04S
INTNL FALLS    CLEAR     59  58  96 CALM      29.96S
DULUTH         MOCLDY    70  64  81 SW8       30.00S
RED WING       CLEAR     64  63  94 CALM      30.05S FOG
REDWOOD FALLS  CLEAR     67  62  84 S7        30.03S
MANKATO        CLEAR     66  61  82 S6        30.05F
WORTHINGTON    CLEAR     69  64  84 MISG      30.08F
FAIRMONT       CLEAR     63  45  51 S5        30.06S
$$

...SOUTHWEST WISCONSIN...


CITY           SKY/WX    TMP DP  RH WIND       PRES   REMARKS
LA CROSSE      CLEAR     66  64  93 SE5       30.07R
PRAIRIE DU CHI MOCLDY    63  62  96 CALM      30.08S
BOSCOBEL       FOG       64  64 100 S3        30.09R VSB 1/4
LONE ROCK      NOT AVBL
PLATTEVILLE    CLEAR     63  63 100 CALM      30.09R
FORT MC COY    CLEAR     55  55  99 CALM      30.09R
CAMP DOUGLAS   CLEAR     55  55 100 SE1       30.07S FOG
MAUSTON-NEW LI SUNNY     58  58  99 CALM      30.07R FOG
VIROQUA        FAIR      62  62 100 CALM      30.09S
WIS DELLS      NOT AVBL
$$

...ELSEWHERE IN WISCONSIN...


CITY           SKY/WX    TMP DP  RH WIND       PRES   REMARKS
MILWAUKEE      PTCLDY    70  62  76 CALM      30.06R
MADISON        PTCLDY    64  62  93 CALM      30.08R
GREEN BAY      CLEAR     62  62 100 CALM      30.04S
EAU CLAIRE     NOT AVBL
BLACK RVR FLS  FAIR      56  56 100 CALM      30.06S
MEDFORD        CLEAR     58  58 100 CALM      30.08S
WAUSAU         CLEAR     61  60  97 CALM      30.06R
WIS RAPIDS     CLEAR     60  57  89 CALM      30.08S
MARSHFIELD     CLEAR     63  60  90 W5        30.07S
RICE LAKE      FOG       61  60  96 CALM      30.07R VSB 1
$$

...NORTHEAST IOWA...


CITY           SKY/WX    TMP DP  RH WIND       PRES   REMARKS
WATERLOO       CLEAR     62  60  93 CALM      30.07S
DUBUQUE        CLEAR     66  62  87 NE7       30.09S
DECORAH        CLEAR     63  63 100 CALM      30.08S FOG
MASON CITY     CLEAR     61  60  97 CALM      30.11S
CHARLES CITY   CLEAR     61  61 100 CALM      30.10R
OELWEIN        NOT AVBL
$$

...ELSEWHERE IN IOWA...


CITY           SKY/WX    TMP DP  RH WIND       PRES   REMARKS
DES MOINES     PTCLDY    69  66  90 CALM      30.08R
IOWA CITY      CLEAR     65  64  97 CALM      30.08R
FORT DODGE     CLEAR     63  63 100 CALM      30.10S
MARSHALLTOWN   CLEAR     61  60  97 NW6       30.08R
CEDAR RAPIDS   CLEAR     62  62 100 NW3       30.07S
$$

...NORTHERN ILLINOIS...


CITY           SKY/WX    TMP DP  RH WIND       PRES   REMARKS
CHICAGO-OHARE  PTCLDY    71  65  81 N5        30.06R
CHICAGO-MIDWAY PTCLDY    73  64  73 CALM      30.05R
MOLINE         PTCLDY    65  62  90 CALM      30.06R
ROCKFORD       PTCLDY    67  65  93 CALM      30.08R
PEORIA         CLEAR     69  67  93 CALM      30.05S
$$

NOTE: "FAIR" INDICATES FEW OR NO CLOUDS BELOW 12,000 FEET WITH NO
SIGNIFICANT WEATHER AND/OR OBSTRUCTIONS TO VISIBILITY. WIND
SPEEDS ARE IN MILES-PER-HOUR.




USA.gov is the U.S. government's official web portal to all federal, state and local government web resources and services.